DELTA 1 DEB, 7021

Orbit data source: Space-Track

DELTA 1 DEB, 7021 is space debris in SSO originally from a launch on Tue, 06 Nov 1973 UTC launched from the Air Force Western Test Range (AFWTR). Debris objects in space refer to the collection of defunct objects orbiting the Earth. Examples of debris include non-operational satellites, rocket bodies, and fragments generated from explosions, collisions, or faulty payload assembly.

Loading next visibility...
Identifier
7021, 1973-086M
Orbit
SSO
Country
Flag of USUS
Related business
Manufacturer
Unknown
Mission
Spacecraft
Bus & Motor
Unknown
Mass
Unknown
Launch date (UTC)
1973-11-06 (52 years ago)
Launch vehicle
Unknown
Launch site
Air Force Western Test Range (AFWTR)
Object type
Payload
Rocket body
Debris
Shape & HBR
Unknown shape, 0.2 m
Radar Cross Section
Medium (>0.1 m² and <1 m²)

Expand to show TLE details & history
Last TLE update: 12 hours ago

TLE from 12 hours ago
0 DELTA 1 DEB
1 07021U 73086M   26033.59209167  .00000479  00000-0  40197-2 0  9990
2 07021 101.6906  79.9052 0187640 117.8198  49.5380 12.32928765332695
Epoch: 2026-02-02T14:12Z
TLE epoch observation values (Epoch: 2026-02-02T14:12:36.720Z)
Latitude
10.70664°
Longitude
-83.80191°
Altitude
1,443.78 km
Speed
7.183 km/s
True Right ascension
17h 28m 32s
True Declination
10° 38' 58"
Sunlit
Object was in daylight at epoch
Visualization orbit readout
Latitude
Unknown
Longitude
Unknown
Altitude
Unknown
Speed
Unknown
Apparent Right ascension
Unknown
Apparent Declination
Unknown
Sunlit
N/A
Visualization observer readout
Local Sidereal Time
03:36:16
Azimuth
Unknown
Elevation
Unknown
Doppler factor
Unknown
Orbital elements
Apogee altitude
1,682.755 km
Perigee altitude
1,385.818 km
Semi-major axis
7,912.424 km
Eccentricity
0.01876
Inclination
101.6906°
RAAN
79.9052°
Arg. of periapsis
117.8198°
True anomaly
51.19898°
Mean anomaly
49.538°
Eccentric anomaly
50.36597°
Mean motion
3.08375 °/min
Orbital period
116.74 mins
BSTAR
0.0040197
Loading maneuver chart data...
Computing Atmospheric mass density...
Loading historical data...
Loading historical data...
Loading historical data...
Loading historical data...
Loading historical data...
Loading historical data...
Loading historical data...

Documentation

Showing up to 5 results
|